This is the latest recevied weather packets stored in our database for station/object KD4MBW. If no packets are shown the sender has not sent any weather packets the latest 10 day(s).
| Time | Temp. | Humidity | Pressure | Rain* | Wind** | Luminosity | Snow |
|---|---|---|---|---|---|---|---|
| 1788049139 | 26.11° C | 97% | 1017.1 hPa | 0 mm | - | 0 W/m² | - |
| 1788048834 | 26.11° C | 96% | 1017.1 hPa | 0 mm | - | 1 W/m² | - |
| 1788048529 | 26.11° C | 96% | 1016.7 hPa | 0 mm | - | 3 W/m² | - |
| 1788048227 | 26.11° C | 95% | 1016.9 hPa | 0 mm | - | 4 W/m² | - |
| 1788047924 | 26.67° C | 94% | 1017.3 hPa | 0 mm | - | 6 W/m² | - |
| 1788047619 | 26.67° C | 93% | 1017.1 hPa | 0 mm | - | 9 W/m² | - |
| 1788047319 | 26.67° C | 92% | 1017.1 hPa | 0 mm | - | 12 W/m² | - |
| 1788047013 | 26.67° C | 92% | 1017 hPa | 0 mm | - | 15 W/m² | - |
| 1788046708 | 27.22° C | 92% | 1017.1 hPa | 0 mm | - | 20 W/m² | - |
| 1788046402 | 27.22° C | 91% | 1017.2 hPa | 0 mm | - | 26 W/m² | - |
| 1788046100 | 27.22° C | 91% | 1017.2 hPa | 0 mm | - | 34 W/m² | - |
| 1788045795 | 27.22° C | 90% | 1017.2 hPa | 0 mm | - | 40 W/m² | - |
| 1788045491 | 27.22° C | 90% | 1017.2 hPa | 0 mm | - | 47 W/m² | - |
| 1788045186 | 27.22° C | 89% | 1017 hPa | 0 mm | - | 50 W/m² | - |
| 1788044881 | 27.22° C | 89% | 1017.6 hPa | 0 mm | - | 58 W/m² | - |
| 1788044575 | 27.22° C | 89% | 1017.2 hPa | 0 mm | - | 70 W/m² | - |
| 1788044274 | 27.78° C | 89% | 1017.3 hPa | 0 mm | - | 84 W/m² | - |
| 1788043970 | 27.78° C | 88% | 1017.5 hPa | 0 mm | - | 99 W/m² | - |
| 1788043665 | 27.78° C | 88% | 1017.4 hPa | 0 mm | - | 112 W/m² | - |
| 1788043361 | 27.78° C | 87% | 1017.4 hPa | 0 mm | - | 113 W/m² | - |
| 1788043060 | 27.78° C | 87% | 1017.5 hPa | 0 mm | - | 116 W/m² | - |
| 1788042756 | 27.78° C | 88% | 1017.5 hPa | 0 mm | - | 117 W/m² | - |
| 1788042454 | 27.78° C | 88% | 1017.5 hPa | 0 mm | - | 123 W/m² | - |
| 1788042150 | 27.78° C | 87% | 1017.5 hPa | 0 mm | - | 147 W/m² | - |
| 1788041845 | 27.78° C | 87% | 1017.3 hPa | 0 mm | - | 178 W/m² | - |
* Rain latest hour (hover to see other rain measurements)
** Current wind speed in m/s (hover to see current wind gust speed)